owner,sensor,date,latitude,longitude,vertical_datum,direction_of_sea_water_velocity,sea_water_speed,upward_sea_water_velocity,qcFlag 
TABS,ioos:station:wmo:42051:1,2010-03-01T00:00:00Z,29.6350,-93.6417,2.0,307.2788871,17.94645647,-99999.0,'11111222,11111222,99999999' 
TABS,ioos:station:wmo:42051:1,2010-03-01T00:30:00Z,29.6350,-93.6417,2.0,310.6142232,14.79357293,-99999.0,'11111222,11111222,99999999' 
TABS,ioos:station:wmo:42051:1,2010-03-01T01:00:00Z,29.6350,-93.6417,2.0,306.9296588,13.49800726,-99999.0,'11111222,11111222,99999999' 
TABS,ioos:station:wmo:42051:1,2010-03-01T01:30:00Z,29.6350,-93.6417,2.0,300.0689334,11.85542914,-99999.0,'11111222,11111222,99999999' 
TABS,ioos:station:wmo:42051:1,2010-03-01T02:00:00Z,29.6350,-93.6417,2.0,299.1458063,11.02605097,-99999.0,'11111222,11111222,99999999' 
TABS,ioos:station:wmo:42051:1,2010-03-01T02:30:00Z,29.6350,-93.6417,2.0,316.2359641,15.41144056,-99999.0,'11111222,11111222,99999999' 
TABS,ioos:station:wmo:42051:1,2010-03-01T03:00:00Z,29.6350,-93.6417,2.0,307.3168118,13.85642089,-99999.0,'11111222,11111222,99999999' 
TABS,ioos:station:wmo:42051:1,2010-03-01T03:30:00Z,29.6350,-93.6417,2.0,309.1182361,13.86867333,-99999.0,'11111222,11111222,99999999' 
TABS,ioos:station:wmo:42051:1,2010-03-01T04:00:00Z,29.6350,-93.6417,2.0,299.6557283,16.67400972,-99999.0,'11111222,11111222,99999999' 
TABS,ioos:station:wmo:42051:1,2010-03-01T04:30:00Z,29.6350,-93.6417,2.0,301.2314234,18.74671438,-99999.0,'11111222,11111222,99999999' 
TABS,ioos:station:wmo:42051:1,2010-03-01T05:00:00Z,29.6350,-93.6417,2.0,298.9072262,16.19818817,-99999.0,'11111222,11111222,99999999' 
TABS,ioos:station:wmo:42051:1,2010-03-01T05:30:00Z,29.6350,-93.6417,2.0,276.7384494,15.42655179,-99999.0,'11111222,11111222,99999999' 
TABS,ioos:station:wmo:42051:1,2010-03-01T06:00:00Z,29.6350,-93.6417,2.0,278.2664137,20.86677982,-99999.0,'11111222,11111222,99999999' 
TABS,ioos:station:wmo:42051:1,2010-03-01T06:30:00Z,29.6350,-93.6417,2.0,265.5700301,22.78806705,-99999.0,'11111222,11111222,99999999' 
TABS,ioos:station:wmo:42051:1,2010-03-01T07:00:00Z,29.6350,-93.6417,2.0,272.0232135,23.51465288,-99999.0,'11111222,11111222,99999999' 
TABS,ioos:station:wmo:42051:1,2010-03-01T07:30:00Z,29.6350,-93.6417,2.0,273.3631027,26.76608488,-99999.0,'11111222,11111222,99999999' 
TABS,ioos:station:wmo:42051:1,2010-03-01T08:00:00Z,29.6350,-93.6417,2.0,255.5919694,26.56548513,-99999.0,'11111222,11111222,99999999' 
TABS,ioos:station:wmo:42051:1,2010-03-01T08:30:00Z,29.6350,-93.6417,2.0,255.229351,28.39840136,-99999.0,'11111222,11111222,99999999' 
TABS,ioos:station:wmo:42051:1,2010-03-01T09:00:00Z,29.6350,-93.6417,2.0,259.6455117,28.09754616,-99999.0,'11111222,11111222,99999999' 
TABS,ioos:station:wmo:42051:1,2010-03-01T09:30:00Z,29.6350,-93.6417,2.0,254.5240592,30.31924306,-99999.0,'11111222,11111222,99999999' 
TABS,ioos:station:wmo:42051:1,2010-03-01T10:00:00Z,29.6350,-93.6417,2.0,250.9848336,32.81031088,-99999.0,'11111222,11111222,99999999' 
TABS,ioos:station:wmo:42051:1,2010-03-01T10:30:00Z,29.6350,-93.6417,2.0,250.3571656,33.91347225,-99999.0,'11111222,11111222,99999999' 
TABS,ioos:station:wmo:42051:1,2010-03-01T11:00:00Z,29.6350,-93.6417,2.0,249.8937928,35.89762806,-99999.0,'11111222,11111222,99999999' 
TABS,ioos:station:wmo:42051:1,2010-03-01T11:30:00Z,29.6350,-93.6417,2.0,253.3524564,45.30903332,-99999.0,'11111222,11111222,99999999' 
TABS,ioos:station:wmo:42051:1,2010-03-01T12:00:00Z,29.6350,-93.6417,2.0,256.2126332,39.02435137,-99999.0,'11111222,11111222,99999999' 
TABS,ioos:station:wmo:42051:1,2010-03-01T12:30:00Z,29.6350,-93.6417,2.0,265.86237,32.43452019,-99999.0,'11111222,11111222,99999999' 
TABS,ioos:station:wmo:42051:1,2010-03-01T13:00:00Z,29.6350,-93.6417,2.0,262.3819302,24.66769953,-99999.0,'11111222,11111222,99999999' 
TABS,ioos:station:wmo:42051:1,2010-03-01T13:30:00Z,29.6350,-93.6417,2.0,264.1861631,21.62119793,-99999.0,'11111222,11111222,99999999' 
TABS,ioos:station:wmo:42051:1,2010-03-01T14:00:00Z,29.6350,-93.6417,2.0,276.3620282,20.66726155,-99999.0,'11111222,11111222,99999999' 
TABS,ioos:station:wmo:42051:1,2010-03-01T14:30:00Z,29.6350,-93.6417,2.0,290.5769483,16.33192273,-99999.0,'11111222,11111222,99999999' 
TABS,ioos:station:wmo:42051:1,2010-03-01T15:00:00Z,29.6350,-93.6417,2.0,277.7655688,15.32048628,-99999.0,'11111222,11111222,99999999' 
TABS,ioos:station:wmo:42051:1,2010-03-01T15:30:00Z,29.6350,-93.6417,2.0,263.7388955,19.89867584,-99999.0,'11111222,11111222,99999999' 
TABS,ioos:station:wmo:42051:1,2010-03-01T16:00:00Z,29.6350,-93.6417,2.0,270.3333825,22.37037773,-99999.0,'11111222,11111222,99999999' 
TABS,ioos:station:wmo:42051:1,2010-03-01T16:30:00Z,29.6350,-93.6417,2.0,286.6716276,25.48105571,-99999.0,'11111222,11111222,99999999' 
TABS,ioos:station:wmo:42051:1,2010-03-01T17:00:00Z,29.6350,-93.6417,2.0,272.9329031,32.25223403,-99999.0,'11111222,11111222,99999999' 
TABS,ioos:station:wmo:42051:1,2010-03-01T17:30:00Z,29.6350,-93.6417,2.0,262.6678572,42.62853504,-99999.0,'11111222,11111222,99999999' 
TABS,ioos:station:wmo:42051:1,2010-03-01T18:00:00Z,29.6350,-93.6417,2.0,265.174523,49.5756886,-99999.0,'11111222,11111222,99999999' 
TABS,ioos:station:wmo:42051:1,2010-03-01T18:30:00Z,29.6350,-93.6417,2.0,271.4325138,53.2166224,-99999.0,'11111222,11111222,99999999' 
TABS,ioos:station:wmo:42051:1,2010-03-01T19:00:00Z,29.6350,-93.6417,2.0,267.6648577,49.83136562,-99999.0,'11111222,11111222,99999999' 
TABS,ioos:station:wmo:42051:1,2010-03-01T19:30:00Z,29.6350,-93.6417,2.0,264.622055,48.44320902,-99999.0,'11111222,11111222,99999999' 
TABS,ioos:station:wmo:42051:1,2010-03-01T20:00:00Z,29.6350,-93.6417,2.0,267.3715433,44.92725231,-99999.0,'11111222,11111222,99999999' 
TABS,ioos:station:wmo:42051:1,2010-03-01T20:30:00Z,29.6350,-93.6417,2.0,264.4171831,43.58671816,-99999.0,'11111222,11111222,99999999' 
TABS,ioos:station:wmo:42051:1,2010-03-01T21:00:00Z,29.6350,-93.6417,2.0,255.0699163,42.92917423,-99999.0,'11111222,11111222,99999999' 
TABS,ioos:station:wmo:42051:1,2010-03-01T21:30:00Z,29.6350,-93.6417,2.0,251.1849296,46.75846447,-99999.0,'11111222,11111222,99999999' 
TABS,ioos:station:wmo:42051:1,2010-03-01T22:00:00Z,29.6350,-93.6417,2.0,248.8434677,54.08533997,-99999.0,'11111222,11111222,99999999' 
TABS,ioos:station:wmo:42051:1,2010-03-01T22:30:00Z,29.6350,-93.6417,2.0,249.024688,49.30724186,-99999.0,'11111222,11111222,99999999' 
TABS,ioos:station:wmo:42051:1,2010-03-01T23:00:00Z,29.6350,-93.6417,2.0,242.3593657,42.42120696,-99999.0,'11111222,11111222,99999999' 
TABS,ioos:station:wmo:42051:1,2010-03-01T23:30:00Z,29.6350,-93.6417,2.0,243.5050427,43.64360778,-99999.0,'11111222,11111222,99999999' 
TABS,ioos:station:wmo:42051:1,2010-03-02T00:00:00Z,29.6350,-93.6417,2.0,234.1896321,46.70999144,-99999.0,'11111222,11111222,99999999' 
TABS,ioos:station:wmo:42051:1,2010-03-02T00:30:00Z,29.6350,-93.6417,2.0,236.3223058,49.98958291,-99999.0,'11111222,11111222,99999999' 
TABS,ioos:station:wmo:42051:1,2010-03-02T01:00:00Z,29.6350,-93.6417,2.0,234.1057409,48.61105224,-99999.0,'11111222,11111222,99999999' 
TABS,ioos:station:wmo:42051:1,2010-03-02T01:30:00Z,29.6350,-93.6417,2.0,238.4514675,34.80401845,-99999.0,'11111222,11111222,99999999' 
TABS,ioos:station:wmo:42051:1,2010-03-02T02:00:00Z,29.6350,-93.6417,2.0,248.69961,30.55733791,-99999.0,'11111222,11111222,99999999' 
TABS,ioos:station:wmo:42051:1,2010-03-02T02:30:00Z,29.6350,-93.6417,2.0,242.2311573,26.82978941,-99999.0,'11111222,11111222,99999999' 
TABS,ioos:station:wmo:42051:1,2010-03-02T03:00:00Z,29.6350,-93.6417,2.0,234.0656693,34.28457379,-99999.0,'11111222,11111222,99999999' 
TABS,ioos:station:wmo:42051:1,2010-03-02T03:30:00Z,29.6350,-93.6417,2.0,237.5357019,36.42163368,-99999.0,'11111222,11111222,99999999' 
TABS,ioos:station:wmo:42051:1,2010-03-02T04:00:00Z,29.6350,-93.6417,2.0,245.8672559,28.76386796,-99999.0,'11111222,11111222,99999999' 
TABS,ioos:station:wmo:42051:1,2010-03-02T04:30:00Z,29.6350,-93.6417,2.0,247.6246656,24.11560491,-99999.0,'11111222,11111222,99999999' 
TABS,ioos:station:wmo:42051:1,2010-03-02T05:00:00Z,29.6350,-93.6417,2.0,253.7224635,27.04400118,-99999.0,'11111222,11111222,99999999' 
TABS,ioos:station:wmo:42051:1,2010-03-02T05:30:00Z,29.6350,-93.6417,2.0,259.2186862,23.78990122,-99999.0,'11111222,11111222,99999999' 
TABS,ioos:station:wmo:42051:1,2010-03-02T06:00:00Z,29.6350,-93.6417,2.0,259.6118573,25.34540984,-99999.0,'11111222,11111222,99999999' 
TABS,ioos:station:wmo:42051:1,2010-03-02T06:30:00Z,29.6350,-93.6417,2.0,255.7643108,20.94307762,-99999.0,'11111222,11111222,99999999' 
TABS,ioos:station:wmo:42051:1,2010-03-02T07:00:00Z,29.6350,-93.6417,2.0,253.2698474,21.57312448,-99999.0,'11111222,11111222,99999999' 
TABS,ioos:station:wmo:42051:1,2010-03-02T07:30:00Z,29.6350,-93.6417,2.0,251.5344302,23.96374345,-99999.0,'11111222,11111222,99999999' 
TABS,ioos:station:wmo:42051:1,2010-03-02T08:00:00Z,29.6350,-93.6417,2.0,253.4909989,23.89502459,-99999.0,'11111222,11111222,99999999' 
TABS,ioos:station:wmo:42051:1,2010-03-02T08:30:00Z,29.6350,-93.6417,2.0,255.3878151,23.90309185,-99999.0,'11111222,11111222,99999999' 
TABS,ioos:station:wmo:42051:1,2010-03-02T09:00:00Z,29.6350,-93.6417,2.0,261.3447119,26.24890474,-99999.0,'11111222,11111222,99999999' 
TABS,ioos:station:wmo:42051:1,2010-03-02T09:30:00Z,29.6350,-93.6417,2.0,274.9151068,22.99454283,-99999.0,'11111222,11111222,99999999' 
TABS,ioos:station:wmo:42051:1,2010-03-02T10:00:00Z,29.6350,-93.6417,2.0,289.2303668,18.45999187,-99999.0,'11111222,11111222,99999999' 
TABS,ioos:station:wmo:42051:1,2010-03-02T10:30:00Z,29.6350,-93.6417,2.0,278.5742654,6.573461797,-99999.0,'11133222,11111222,99999999' 
TABS,ioos:station:wmo:42051:1,2010-03-02T11:00:00Z,29.6350,-93.6417,2.0,284.0366316,2.762480769,-99999.0,'11133222,11111222,99999999' 
TABS,ioos:station:wmo:42051:1,2010-03-02T11:30:00Z,29.6350,-93.6417,2.0,68.05664514,4.495697944,-99999.0,'11133222,11111222,99999999' 
TABS,ioos:station:wmo:42051:1,2010-03-02T12:00:00Z,29.6350,-93.6417,2.0,32.35691366,3.456718097,-99999.0,'11133222,11111222,99999999' 
TABS,ioos:station:wmo:42051:1,2010-03-02T12:30:00Z,29.6350,-93.6417,2.0,342.9536524,3.001882743,-99999.0,'11133222,11111222,99999999' 
TABS,ioos:station:wmo:42051:1,2010-03-02T13:00:00Z,29.6350,-93.6417,2.0,240.2547673,1.451206395,-99999.0,'11133222,11111222,99999999' 
TABS,ioos:station:wmo:42051:1,2010-03-02T13:30:00Z,29.6350,-93.6417,2.0,106.5842404,3.818861087,-99999.0,'11133222,11111222,99999999' 
TABS,ioos:station:wmo:42051:1,2010-03-02T14:00:00Z,29.6350,-93.6417,2.0,173.266884,2.9,-99999.0,'11133222,11111222,99999999' 
TABS,ioos:station:wmo:42051:1,2010-03-02T14:30:00Z,29.6350,-93.6417,2.0,9.162536079,1.570031847,-99999.0,'11133222,11111222,99999999' 
TABS,ioos:station:wmo:42051:1,2010-03-02T15:00:00Z,29.6350,-93.6417,2.0,46.55225259,5.482089018,-99999.0,'11133222,11111222,99999999' 
TABS,ioos:station:wmo:42051:1,2010-03-02T15:30:00Z,29.6350,-93.6417,2.0,74.3479212,6.708777832,-99999.0,'11133222,11111222,99999999' 
TABS,ioos:station:wmo:42051:1,2010-03-02T16:00:00Z,29.6350,-93.6417,2.0,75.76702082,7.768461881,-99999.0,'11133222,11111222,99999999' 
TABS,ioos:station:wmo:42051:1,2010-03-02T16:30:00Z,29.6350,-93.6417,2.0,96.21699378,8.218333164,-99999.0,'11133222,11111222,99999999' 
TABS,ioos:station:wmo:42051:1,2010-03-02T17:00:00Z,29.6350,-93.6417,2.0,103.8586879,6.262299897,-99999.0,'11133222,11111222,99999999' 
TABS,ioos:station:wmo:42051:1,2010-03-02T17:30:00Z,29.6350,-93.6417,2.0,67.3205609,7.391542464,-99999.0,'11133222,11111222,99999999' 
TABS,ioos:station:wmo:42051:1,2010-03-02T18:00:00Z,29.6350,-93.6417,2.0,70.95440801,6.527311851,-99999.0,'11133222,11111222,99999999' 
TABS,ioos:station:wmo:42051:1,2010-03-02T18:30:00Z,29.6350,-93.6417,2.0,66.01904676,9.423428251,-99999.0,'11133222,11111222,99999999' 
TABS,ioos:station:wmo:42051:1,2010-03-02T19:00:00Z,29.6350,-93.6417,2.0,74.97191913,11.06855908,-99999.0,'11111222,11111222,99999999' 
TABS,ioos:station:wmo:42051:1,2010-03-02T19:30:00Z,29.6350,-93.6417,2.0,80.57657956,14.5361618,-99999.0,'11111222,11111222,99999999' 
TABS,ioos:station:wmo:42051:1,2010-03-02T20:00:00Z,29.6350,-93.6417,2.0,75.99182049,14.87228631,-99999.0,'11111222,11111222,99999999' 
TABS,ioos:station:wmo:42051:1,2010-03-02T20:30:00Z,29.6350,-93.6417,2.0,82.21073274,12.83845785,-99999.0,'11111222,11111222,99999999' 
TABS,ioos:station:wmo:42051:1,2010-03-02T21:00:00Z,29.6350,-93.6417,2.0,99.81420749,12.84802319,-99999.0,'11111222,11111222,99999999' 
TABS,ioos:station:wmo:42051:1,2010-03-02T21:30:00Z,29.6350,-93.6417,2.0,96.75109643,12.16434544,-99999.0,'11111222,11111222,99999999' 
TABS,ioos:station:wmo:42051:1,2010-03-02T22:00:00Z,29.6350,-93.6417,2.0,118.0748137,14.08764707,-99999.0,'11111222,11111222,99999999' 
TABS,ioos:station:wmo:42051:1,2010-03-02T22:30:00Z,29.6350,-93.6417,2.0,144.8055853,12.99555693,-99999.0,'11111222,11111222,99999999' 
TABS,ioos:station:wmo:42051:1,2010-03-02T23:00:00Z,29.6350,-93.6417,2.0,158.4210283,18.1629981,-99999.0,'11111222,11111222,99999999' 
TABS,ioos:station:wmo:42051:1,2010-03-02T23:30:00Z,29.6350,-93.6417,2.0,160.4691426,17.52854814,-99999.0,'11111222,11111222,99999999' 
TABS,ioos:station:wmo:42051:1,2010-03-03T00:00:00Z,29.6350,-93.6417,2.0,151.8900919,18.082945,-99999.0,'11111222,11111222,99999999' 
TABS,ioos:station:wmo:42051:1,2010-03-03T00:30:00Z,29.6350,-93.6417,2.0,153.3388739,18.69802663,-99999.0,'11111222,11111222,99999999' 
TABS,ioos:station:wmo:42051:1,2010-03-03T01:00:00Z,29.6350,-93.6417,2.0,155.7960544,22.90336656,-99999.0,'11111222,11111222,99999999' 
TABS,ioos:station:wmo:42051:1,2010-03-03T01:30:00Z,29.6350,-93.6417,2.0,154.0233995,25.6848321,-99999.0,'11111222,11111222,99999999' 
TABS,ioos:station:wmo:42051:1,2010-03-03T02:00:00Z,29.6350,-93.6417,2.0,149.6207346,22.52236666,-99999.0,'11111222,11111222,99999999' 
TABS,ioos:station:wmo:42051:1,2010-03-03T02:30:00Z,29.6350,-93.6417,2.0,149.1222026,23.96695433,-99999.0,'11111222,11111222,99999999' 
TABS,ioos:station:wmo:42051:1,2010-03-03T03:00:00Z,29.6350,-93.6417,2.0,152.0384901,28.8135836,-99999.0,'11111222,11111222,99999999' 
TABS,ioos:station:wmo:42051:1,2010-03-03T03:30:00Z,29.6350,-93.6417,2.0,165.3893093,30.24813713,-99999.0,'11111222,11111222,99999999' 
TABS,ioos:station:wmo:42051:1,2010-03-03T04:00:00Z,29.6350,-93.6417,2.0,174.8636632,26.69719461,-99999.0,'11111222,11111222,99999999' 
TABS,ioos:station:wmo:42051:1,2010-03-03T04:30:00Z,29.6350,-93.6417,2.0,187.0019033,23.13253121,-99999.0,'11111222,11111222,99999999' 
TABS,ioos:station:wmo:42051:1,2010-03-03T05:00:00Z,29.6350,-93.6417,2.0,201.1093356,21.68522539,-99999.0,'11111222,11111222,99999999' 
TABS,ioos:station:wmo:42051:1,2010-03-03T05:30:00Z,29.6350,-93.6417,2.0,209.7481885,19.81082785,-99999.0,'11111222,11111222,99999999' 
TABS,ioos:station:wmo:42051:1,2010-03-03T06:00:00Z,29.6350,-93.6417,2.0,218.2546796,15.4725208,-99999.0,'11111222,11111222,99999999' 
TABS,ioos:station:wmo:42051:1,2010-03-03T06:30:00Z,29.6350,-93.6417,2.0,238.1722069,17.40736913,-99999.0,'11111222,11111222,99999999' 
TABS,ioos:station:wmo:42051:1,2010-03-03T07:00:00Z,29.6350,-93.6417,2.0,239.5037438,17.22246208,-99999.0,'11111222,11111222,99999999' 
TABS,ioos:station:wmo:42051:1,2010-03-03T07:30:00Z,29.6350,-93.6417,2.0,245.8356837,22.52356322,-99999.0,'11111222,11111222,99999999' 
TABS,ioos:station:wmo:42051:1,2010-03-03T08:00:00Z,29.6350,-93.6417,2.0,256.560363,23.2774075,-99999.0,'11111222,11111222,99999999' 
TABS,ioos:station:wmo:42051:1,2010-03-03T08:30:00Z,29.6350,-93.6417,2.0,256.5274769,22.66362725,-99999.0,'11111222,11111222,99999999' 
TABS,ioos:station:wmo:42051:1,2010-03-03T09:00:00Z,29.6350,-93.6417,2.0,262.4928892,27.55616809,-99999.0,'11111222,11111222,99999999' 
TABS,ioos:station:wmo:42051:1,2010-03-03T09:30:00Z,29.6350,-93.6417,2.0,264.0631801,27.26622086,-99999.0,'11111222,11111222,99999999' 
TABS,ioos:station:wmo:42051:1,2010-03-03T10:00:00Z,29.6350,-93.6417,2.0,268.0936374,29.76646771,-99999.0,'11111222,11111222,99999999' 
TABS,ioos:station:wmo:42051:1,2010-03-03T10:30:00Z,29.6350,-93.6417,2.0,266.6125632,29.45144479,-99999.0,'11111222,11111222,99999999' 
TABS,ioos:station:wmo:42051:1,2010-03-03T11:00:00Z,29.6350,-93.6417,2.0,273.5403855,28.50438738,-99999.0,'11111222,11111222,99999999' 
TABS,ioos:station:wmo:42051:1,2010-03-03T11:30:00Z,29.6350,-93.6417,2.0,264.9757198,30.71800938,-99999.0,'11111222,11111222,99999999' 
TABS,ioos:station:wmo:42051:1,2010-03-03T12:00:00Z,29.6350,-93.6417,2.0,270.8426412,27.89301346,-99999.0,'11111222,11111222,99999999' 
TABS,ioos:station:wmo:42051:1,2010-03-03T12:30:00Z,29.6350,-93.6417,2.0,267.3213816,28.89155759,-99999.0,'11111222,11111222,99999999' 
TABS,ioos:station:wmo:42051:1,2010-03-03T13:00:00Z,29.6350,-93.6417,2.0,258.6356715,27.05031053,-99999.0,'11111222,11111222,99999999' 
TABS,ioos:station:wmo:42051:1,2010-03-03T13:30:00Z,29.6350,-93.6417,2.0,256.4974137,27.58234943,-99999.0,'11111222,11111222,99999999' 
TABS,ioos:station:wmo:42051:1,2010-03-03T14:00:00Z,29.6350,-93.6417,2.0,250.6717919,27.19256516,-99999.0,'11111222,11111222,99999999' 
TABS,ioos:station:wmo:42051:1,2010-03-03T14:30:00Z,29.6350,-93.6417,2.0,257.7481579,23.75090946,-99999.0,'11111222,11111222,99999999' 
TABS,ioos:station:wmo:42051:1,2010-03-03T15:00:00Z,29.6350,-93.6417,2.0,250.3835787,20.4041883,-99999.0,'11111222,11111222,99999999' 
TABS,ioos:station:wmo:42051:1,2010-03-03T15:30:00Z,29.6350,-93.6417,2.0,264.1579739,15.22908402,-99999.0,'11111222,11111222,99999999' 
TABS,ioos:station:wmo:42051:1,2010-03-03T16:00:00Z,29.6350,-93.6417,2.0,260.9569919,12.34340715,-99999.0,'11111222,11111222,99999999' 
TABS,ioos:station:wmo:42051:1,2010-03-03T16:30:00Z,29.6350,-93.6417,2.0,256.6051669,13.64105934,-99999.0,'11111222,11111222,99999999' 
TABS,ioos:station:wmo:42051:1,2010-03-03T17:00:00Z,29.6350,-93.6417,2.0,270.2745607,12.54014354,-99999.0,'11111222,11111222,99999999' 
TABS,ioos:station:wmo:42051:1,2010-03-03T17:30:00Z,29.6350,-93.6417,2.0,279.9776708,11.88981497,-99999.0,'11111222,11111222,99999999' 
TABS,ioos:station:wmo:42051:1,2010-03-03T18:00:00Z,29.6350,-93.6417,2.0,313.2150554,10.89473267,-99999.0,'11111222,11111222,99999999' 
TABS,ioos:station:wmo:42051:1,2010-03-03T18:30:00Z,29.6350,-93.6417,2.0,321.2496674,11.82236863,-99999.0,'11111222,11111222,99999999' 
TABS,ioos:station:wmo:42051:1,2010-03-03T19:00:00Z,29.6350,-93.6417,2.0,327.1176366,13.77734735,-99999.0,'11111222,11111222,99999999' 
TABS,ioos:station:wmo:42051:1,2010-03-03T19:30:00Z,29.6350,-93.6417,2.0,315.6633022,14.66637651,-99999.0,'11111222,11111222,99999999' 
TABS,ioos:station:wmo:42051:1,2010-03-03T20:00:00Z,29.6350,-93.6417,2.0,321.1024069,15.03341611,-99999.0,'11111222,11111222,99999999' 
TABS,ioos:station:wmo:42051:1,2010-03-03T20:30:00Z,29.6350,-93.6417,2.0,321.9833442,12.38848255,-99999.0,'11111222,11111222,99999999' 
TABS,ioos:station:wmo:42051:1,2010-03-03T21:00:00Z,29.6350,-93.6417,2.0,327.6433114,8.464242435,-99999.0,'11133222,11111222,99999999' 
TABS,ioos:station:wmo:42051:1,2010-03-03T21:30:00Z,29.6350,-93.6417,2.0,352.15743,9.307056463,-99999.0,'11133222,11111222,99999999' 
TABS,ioos:station:wmo:42051:1,2010-03-03T22:00:00Z,29.6350,-93.6417,2.0,6.189466735,10.4810925,-99999.0,'11111222,11111222,99999999' 
TABS,ioos:station:wmo:42051:1,2010-03-03T22:30:00Z,29.6350,-93.6417,2.0,13.34529157,7.841747254,-99999.0,'11133222,11111222,99999999' 
TABS,ioos:station:wmo:42051:1,2010-03-03T23:00:00Z,29.6350,-93.6417,2.0,10.00487192,10.07317725,-99999.0,'11111222,11111222,99999999' 
TABS,ioos:station:wmo:42051:1,2010-03-03T23:30:00Z,29.6350,-93.6417,2.0,34.52387948,11.62774699,-99999.0,'11111222,11111222,99999999' 
TABS,ioos:station:wmo:42051:1,2010-03-04T00:00:00Z,29.6350,-93.6417,2.0,41.68521944,10.14982266,-99999.0,'11111222,11111222,99999999' 
TABS,ioos:station:wmo:42051:1,2010-03-04T00:30:00Z,29.6350,-93.6417,2.0,58.30599336,7.803819578,-99999.0,'11133222,11111222,99999999' 
TABS,ioos:station:wmo:42051:1,2010-03-04T01:00:00Z,29.6350,-93.6417,2.0,61.48250646,7.875531728,-99999.0,'11133222,11111222,99999999' 
TABS,ioos:station:wmo:42051:1,2010-03-04T01:30:00Z,29.6350,-93.6417,2.0,109.0458034,16.60922635,-99999.0,'11111222,11111222,99999999' 
TABS,ioos:station:wmo:42051:1,2010-03-04T02:00:00Z,29.6350,-93.6417,2.0,106.2588437,17.3228,-99999.0,'11111222,11111222,99999999' 
TABS,ioos:station:wmo:42051:1,2010-03-04T02:30:00Z,29.6350,-93.6417,2.0,122.1689907,18.18115783,-99999.0,'11111222,11111222,99999999' 
TABS,ioos:station:wmo:42051:1,2010-03-04T03:00:00Z,29.6350,-93.6417,2.0,120.8275902,18.77228809,-99999.0,'11111222,11111222,99999999' 
TABS,ioos:station:wmo:42051:1,2010-03-04T03:30:00Z,29.6350,-93.6417,2.0,121.7116511,20.88859258,-99999.0,'11111222,11111222,99999999' 
TABS,ioos:station:wmo:42051:1,2010-03-04T04:00:00Z,29.6350,-93.6417,2.0,123.7915767,17.20682713,-99999.0,'11111222,11111222,99999999' 
TABS,ioos:station:wmo:42051:1,2010-03-04T04:30:00Z,29.6350,-93.6417,2.0,124.6931819,19.16782982,-99999.0,'11111222,11111222,99999999' 
TABS,ioos:station:wmo:42051:1,2010-03-04T05:00:00Z,29.6350,-93.6417,2.0,122.5682435,14.0255089,-99999.0,'11111222,11111222,99999999' 
TABS,ioos:station:wmo:42051:1,2010-03-04T05:30:00Z,29.6350,-93.6417,2.0,122.6424266,14.10838403,-99999.0,'11111222,11111222,99999999' 
TABS,ioos:station:wmo:42051:1,2010-03-04T06:00:00Z,29.6350,-93.6417,2.0,125.6793732,11.7445349,-99999.0,'11111222,11111222,99999999' 
TABS,ioos:station:wmo:42051:1,2010-03-04T06:30:00Z,29.6350,-93.6417,2.0,129.9333223,10.32876082,-99999.0,'11111222,11111222,99999999' 
TABS,ioos:station:wmo:42051:1,2010-03-04T07:00:00Z,29.6350,-93.6417,2.0,142.4679781,7.616508386,-99999.0,'11133222,11111222,99999999' 
TABS,ioos:station:wmo:42051:1,2010-03-04T07:30:00Z,29.6350,-93.6417,2.0,143.3214415,4.788026733,-99999.0,'11133222,11111222,99999999' 
TABS,ioos:station:wmo:42051:1,2010-03-04T08:00:00Z,29.6350,-93.6417,2.0,187.4956297,4.216028937,-99999.0,'11133222,11111222,99999999' 
TABS,ioos:station:wmo:42051:1,2010-03-04T08:30:00Z,29.6350,-93.6417,2.0,246.8675662,7.916470173,-99999.0,'11133222,11111222,99999999' 
TABS,ioos:station:wmo:42051:1,2010-03-04T09:00:00Z,29.6350,-93.6417,2.0,255.2938768,10.79357216,-99999.0,'11111222,11111222,99999999' 
TABS,ioos:station:wmo:42051:1,2010-03-04T09:30:00Z,29.6350,-93.6417,2.0,265.6200593,13.75014909,-99999.0,'11111222,11111222,99999999' 
TABS,ioos:station:wmo:42051:1,2010-03-04T10:00:00Z,29.6350,-93.6417,2.0,272.8189666,15.65894313,-99999.0,'11111222,11111222,99999999' 
TABS,ioos:station:wmo:42051:1,2010-03-04T10:30:00Z,29.6350,-93.6417,2.0,265.3313957,17.44787953,-99999.0,'11111222,11111222,99999999' 
TABS,ioos:station:wmo:42051:1,2010-03-04T11:00:00Z,29.6350,-93.6417,2.0,270.7517961,15.25131142,-99999.0,'11111222,11111222,99999999' 
TABS,ioos:station:wmo:42051:1,2010-03-04T11:30:00Z,29.6350,-93.6417,2.0,278.1711491,17.94213198,-99999.0,'11111222,11111222,99999999' 
TABS,ioos:station:wmo:42051:1,2010-03-04T12:00:00Z,29.6350,-93.6417,2.0,275.9279112,14.71869559,-99999.0,'11111222,11111222,99999999' 
TABS,ioos:station:wmo:42051:1,2010-03-04T12:30:00Z,29.6350,-93.6417,2.0,273.1352941,10.60587102,-99999.0,'11111222,11111222,99999999' 
TABS,ioos:station:wmo:42051:1,2010-03-04T13:00:00Z,29.6350,-93.6417,2.0,278.8111333,12.14329445,-99999.0,'11111222,11111222,99999999' 
TABS,ioos:station:wmo:42051:1,2010-03-04T13:30:00Z,29.6350,-93.6417,2.0,288.2682844,8.677326777,-99999.0,'11133222,11111222,99999999' 
TABS,ioos:station:wmo:42051:1,2010-03-04T14:00:00Z,29.6350,-93.6417,2.0,282.2467251,5.280151513,-99999.0,'11133222,11111222,99999999' 
TABS,ioos:station:wmo:42051:1,2010-03-04T14:30:00Z,29.6350,-93.6417,2.0,298.4936897,6.246639096,-99999.0,'11133222,11111222,99999999' 
TABS,ioos:station:wmo:42051:1,2010-03-04T15:00:00Z,29.6350,-93.6417,2.0,331.8949393,6.155883365,-99999.0,'11133222,11111222,99999999' 
TABS,ioos:station:wmo:42051:1,2010-03-04T15:30:00Z,29.6350,-93.6417,2.0,333.679551,4.194901668,-99999.0,'11133222,11111222,99999999' 
TABS,ioos:station:wmo:42051:1,2010-03-04T16:00:00Z,29.6350,-93.6417,2.0,346.5288988,6.395975297,-99999.0,'11133222,11111222,99999999' 